Location: Arborea
(39.7744°N, 8.5819°E)
Time: 20:48:57
(UTC+00:00)

CZ-2C DEB - Pass Details

Date: 17 August 2022
Orbit: 681 x 927 km, 97.9° (Epoch: 03 October)

Event Time Altitude Azimuth Distance (km) Brightness Sun altitude
Rises 20:10:03 0° 29° (NNE) 3,249 ? -19.6°
Reaches altitude 10° 20:12:52 10° 45° (NE) 2,362 ? -20.0°
Enters shadow 20:15:15 19° 71° (ENE) 1,856 ? -20.4°
